Weather History for Ravenna, OH

Change the Weather History Date:

Sunday, February 16, 2014

  Actual Average (KCAK) Record (KCAK)
Temperature  
Mean Temperature 12 °F 29 °F  
Max Temperature 23 °F 37 °F 63 °F (1954)
Min Temperature 1 °F 21 °F -11 °F (1904)
Degree Days  
Heating Degree Days 53 36  
Month to date heating degree days 596  
Since 1 July heating degree days 4132  
Cooling Degree Days 0 0  
Month to date cooling degree days 0  
Year to date cooling degree days 0  
Moisture  
Dew Point 10 °F    
Average Humidity 83    
Maximum Humidity 89    
Minimum Humidity 75    
Precipitation  
Precipitation 0.00 in 0.07 in 0.82 in (1976)
Month to date precipitation 1.30  
Year to date precipitation 3.91  
Snow  
Snow 0.00 in 0.40 in - ()
Month to date snowfall 5.9  
Since 1 July snowfall 31.9  
Snow Depth -    
Sea Level Pressure  
Sea Level Pressure 30.04 in    
Wind  
Wind Speed 2 mph (WNW)    
Max Wind Speed 9 mph    
Max Gust Speed -    
Visibility 6 miles    
Events Snow    
T = Trace of Precipitation, MM = Missing Value Source: NWS Daily Summary

Daily Weather History Graph

Daily Weather History Graph

Search for Another Location

Airport:

Trip Planner

Search our weather history database for the weather conditions in past years. The results will help you decide how hot, cold, wet, or windy it might be!

Date:

Astronomy

Feb. 16, 2014 Rise Set
Actual Time 7:18 AM EST 6:00 PM EST
Civil Twilight 6:50 AM EST 6:28 PM EST
Nautical Twilight 6:17 AM EST 7:00 PM EST
Astronomical Twilight 5:45 AM EST 7:32 PM EST
Moon 7:57 PM EST (2/16) 7:46 AM EST (2/16)
Length of Visible Light 11h 38m
Length of Day
10h 42m
Full, 97% of the Moon is Illuminated
Feb 16
Full
Feb 22
Last Quarter
Mar 1
New
Mar 8
First Quarter
Mar 16
Full

Hourly Weather History & Observations

Time (EST) Temp. Windchill Dew Point Humidity Pressure Visibility Wind Dir Wind Speed Gust Speed Precip Events Conditions
12:13 AM 5.0 °F - 1.8 °F 86% 30.02 in 10.0 mi Calm Calm - N/A   Clear
12:33 AM 3.0 °F - -0.8 °F 84% 30.01 in 10.0 mi Calm Calm - N/A   Scattered Clouds
12:53 AM 1.2 °F - -2.7 °F 83% 30.01 in 10.0 mi Calm Calm - N/A   Scattered Clouds
1:13 AM 2.7 °F - -1.1 °F 84% 30.01 in 10.0 mi Calm Calm - N/A   Scattered Clouds
1:33 AM 3.9 °F - 0.3 °F 85% 30.01 in 10.0 mi Calm Calm - N/A   Mostly Cloudy
1:52 AM 6.6 °F - 3.4 °F 87% 30.00 in 10.0 mi Calm Calm - N/A   Scattered Clouds
2:13 AM 6.8 °F - 3.6 °F 87% 30.00 in 10.0 mi Calm Calm - N/A   Mostly Cloudy
2:33 AM 7.5 °F 0.8 °F 4.3 °F 87% 30.00 in 10.0 mi SSW 3.5 mph - N/A   Overcast
2:52 AM 5.5 °F - 2.1 °F 86% 30.00 in 10.0 mi Calm Calm - N/A   Mostly Cloudy
3:13 AM 2.7 °F - -1.5 °F 83% 29.99 in 10.0 mi Calm Calm - N/A   Scattered Clouds
3:33 AM 4.1 °F - 1.0 °F 87% 29.98 in 10.0 mi Calm Calm - N/A   Clear
3:53 AM 2.3 °F - -1.5 °F 84% 29.98 in 10.0 mi Calm Calm - N/A   Clear
4:13 AM 3.2 °F - -0.4 °F 85% 29.97 in 10.0 mi Calm Calm - N/A   Clear
4:33 AM 6.4 °F - 3.2 °F 87% 29.98 in 10.0 mi Calm Calm - N/A   Clear
4:52 AM 5.5 °F - 2.1 °F 86% 29.98 in 10.0 mi Calm Calm - N/A   Mostly Cloudy
5:13 AM 9.1 °F - 5.9 °F 87% 29.97 in 10.0 mi Calm Calm - N/A   Overcast
5:33 AM 9.1 °F - 5.9 °F 87% 29.97 in 10.0 mi Calm Calm - N/A   Overcast
5:52 AM 10.0 °F 3.6 °F 7.2 °F 88% 29.96 in 10.0 mi SSE 3.5 mph - N/A   Overcast
6:13 AM 10.8 °F - 7.7 °F 87% 29.95 in 10.0 mi Calm Calm - N/A   Overcast
6:33 AM 10.9 °F - 7.9 °F 87% 29.94 in 10.0 mi Calm Calm - N/A   Overcast
6:52 AM 12.0 °F - 8.8 °F 87% 29.94 in 10.0 mi Calm Calm - N/A   Overcast
7:13 AM 11.5 °F - 7.7 °F 85% 29.94 in 10.0 mi Calm Calm - N/A   Overcast
7:33 AM 10.2 °F - 6.6 °F 85% 29.94 in 10.0 mi Calm Calm - N/A   Overcast
7:52 AM 11.3 °F - 7.7 °F 85% 29.95 in 10.0 mi Calm Calm - N/A   Overcast
8:13 AM 11.5 °F - 7.7 °F 85% 29.95 in 10.0 mi Calm Calm - N/A   Overcast
8:33 AM 12.2 °F - 8.4 °F 85% 29.95 in 10.0 mi Calm Calm - N/A   Overcast
8:52 AM 13.3 °F - 9.3 °F 84% 29.95 in 10.0 mi Calm Calm - N/A   Overcast
9:13 AM 14.2 °F - 10.0 °F 84% 29.95 in 3.0 mi Calm Calm - N/A Snow Light Snow
9:33 AM 15.1 °F - 10.9 °F 84% 29.96 in 1.5 mi Calm Calm - N/A Snow Light Snow
9:52 AM 15.8 °F - 11.3 °F 82% 29.96 in 2.5 mi Calm Calm - N/A Snow Light Snow
10:13 AM 15.8 °F - 11.7 °F 84% 29.97 in 1.0 mi Calm Calm - N/A Snow Light Snow
10:33 AM 17.6 °F 12.3 °F 13.3 °F 83% 29.96 in 0.8 mi SE 3.5 mph - N/A Snow Light Snow
10:53 AM 19.0 °F - 14.0 °F 81% 29.96 in 1.2 mi Calm Calm - N/A Snow Light Snow
11:13 AM 19.8 °F 14.7 °F 14.7 °F 81% 29.97 in 1.8 mi SSE 3.5 mph - N/A Snow Light Snow
11:33 AM 20.5 °F - 15.4 °F 81% 29.96 in 1.2 mi Calm Calm - N/A Snow Light Snow
11:52 AM 21.7 °F 17.0 °F 15.8 °F 78% 29.96 in 1.8 mi SW 3.5 mph - N/A Snow Light Snow
12:13 PM 22.1 °F 17.4 °F 16.3 °F 79% 29.95 in 2.0 mi West 3.5 mph - N/A Snow Light Snow
12:33 PM 22.6 °F 15.3 °F 17.1 °F 79% 29.95 in 2.0 mi WSW 5.8 mph - N/A Snow Light Snow
12:52 PM 22.6 °F 14.3 °F 16.7 °F 78% 29.94 in 4.0 mi West 6.9 mph - N/A Snow Light Snow
1:13 PM 22.8 °F 13.6 °F 16.9 °F 78% 29.95 in 2.0 mi West 8.1 mph - N/A Snow Light Snow
1:33 PM 23.0 °F 13.1 °F 16.7 °F 77% 29.95 in 3.0 mi West 9.2 mph - N/A Snow Light Snow
1:52 PM 23.0 °F 15.8 °F 16.7 °F 77% 29.95 in 3.0 mi WNW 5.8 mph - N/A Snow Light Snow
2:13 PM 23.4 °F 13.5 °F 17.1 °F 77% 29.96 in 4.0 mi WNW 9.2 mph - N/A Snow Light Snow
2:33 PM 23.4 °F 17.4 °F 17.1 °F 77% 29.96 in 4.0 mi NW 4.6 mph - N/A Snow Light Snow
2:53 PM 23.4 °F 15.2 °F 17.2 °F 77% 29.97 in 2.5 mi WNW 6.9 mph - N/A Snow Light Snow
3:13 PM 23.0 °F 14.7 °F 16.7 °F 77% 29.98 in 5.0 mi NW 6.9 mph - N/A Snow Light Snow
3:33 PM 23.2 °F 13.3 °F 16.2 °F 75% 30.00 in 7.0 mi NW 9.2 mph - N/A Snow Light Snow
3:52 PM 23.0 °F 13.9 °F 16.2 °F 75% 30.01 in 7.0 mi NW 8.1 mph - N/A Snow Light Snow
4:13 PM 22.3 °F 12.2 °F 16.3 °F 78% 30.03 in 4.0 mi WNW 9.2 mph - N/A Snow Light Snow
4:33 PM 22.1 °F 15.9 °F 16.2 °F 78% 30.05 in 3.0 mi NW 4.6 mph - N/A Snow Light Snow
4:52 PM 21.6 °F 13.0 °F 16.2 °F 80% 30.07 in 3.0 mi WNW 6.9 mph - N/A Snow Light Snow
5:13 PM 21.2 °F 12.6 °F 16.2 °F 81% 30.08 in 3.0 mi NW 6.9 mph - N/A Snow Light Snow
5:33 PM 20.1 °F 11.3 °F 15.4 °F 82% 30.09 in 4.0 mi NW 6.9 mph - N/A Snow Light Snow
5:53 PM 19.4 °F 10.4 °F 15.3 °F 84% 30.11 in 3.0 mi NW 6.9 mph - N/A Snow Light Snow
6:13 PM 19.2 °F 10.2 °F 14.7 °F 83% 30.13 in 3.0 mi NW 6.9 mph - N/A Snow Light Snow
6:33 PM 18.1 °F 7.1 °F 13.8 °F 83% 30.15 in 5.0 mi NW 9.2 mph - N/A Snow Light Snow
6:53 PM 17.8 °F 9.6 °F 13.3 °F 83% 30.17 in 4.0 mi NW 5.8 mph - N/A Snow Light Snow
7:13 PM 16.0 °F 10.4 °F 11.8 °F 84% 30.18 in 5.0 mi NW 3.5 mph - N/A Snow Light Snow
7:32 PM 15.1 °F 7.7 °F 11.1 °F 84% 30.19 in 10.0 mi NW 4.6 mph - N/A   Scattered Clouds
7:53 PM 15.4 °F 3.8 °F 12.0 °F 86% 30.21 in 7.0 mi NNW 9.2 mph - N/A   Mostly Cloudy
8:13 PM 16.3 °F 9.2 °F 12.2 °F 84% 30.22 in 4.0 mi NW 4.6 mph - N/A Snow Light Snow
8:32 PM 16.3 °F 4.9 °F 12.0 °F 83% 30.22 in 5.0 mi NNW 9.2 mph - N/A Snow Light Snow
8:53 PM 15.8 °F 10.2 °F 11.3 °F 82% 30.23 in 7.0 mi NW 3.5 mph - N/A Snow Light Snow
9:13 PM 14.9 °F 9.2 °F 11.3 °F 86% 30.24 in 3.0 mi WNW 3.5 mph - N/A Snow Light Snow
9:33 PM 13.3 °F 5.6 °F 9.9 °F 86% 30.25 in 10.0 mi WNW 4.6 mph - N/A   Scattered Clouds
9:53 PM 14.5 °F 7.1 °F 11.3 °F 87% 30.27 in 7.0 mi NW 4.6 mph - N/A Snow Light Snow
10:13 PM 14.9 °F 9.2 °F 11.3 °F 86% 30.28 in 5.0 mi NW 3.5 mph - N/A Snow Light Snow
10:32 PM 14.9 °F 7.5 °F 10.9 °F 84% 30.29 in 7.0 mi NW 4.6 mph - N/A Snow Light Snow
10:53 PM 14.0 °F 6.5 °F 9.9 °F 84% 30.29 in 10.0 mi NW 4.6 mph - N/A Snow Light Snow
11:13 PM 12.9 °F 5.2 °F 9.1 °F 85% 30.29 in 7.0 mi NNW 4.6 mph - N/A Snow Light Snow
11:33 PM 11.1 °F 4.9 °F 7.7 °F 86% 30.29 in 10.0 mi NNW 3.5 mph - N/A   Scattered Clouds
11:53 PM 10.4 °F - 7.7 °F 89% 30.30 in 10.0 mi Calm Calm - N/A   Clear